Weather History for KOJA - November, 2012

Change the Weather History Date:

Thursday, November 29, 2012

  Actual Average (KJWG) Record (KJWG)
Temperature  
Mean Temperature 56 °F -  
Max Temperature 68 °F 54 °F 77 °F (1975)
Min Temperature 44 °F 32 °F 13 °F (1976)
Degree Days  
Heating Degree Days 9    
Growing Degree Days 6 (Base 50)    
Moisture  
Dew Point 42 °F    
Average Humidity 64    
Maximum Humidity 81    
Minimum Humidity 43    
Precipitation  
Precipitation 0.00 in - - ()
Sea Level Pressure  
Sea Level Pressure 30.05 in    
Wind  
Wind Speed 12 mph (South)    
Max Wind Speed 23 mph    
Max Gust Speed 29 mph    
Visibility 10 miles    
Events      
Averages and records for this station are not official NWS values.
T = Trace of Precipitation, MM = Missing Value Source: NWS Daily Summary

Daily Weather History Graph

Daily Weather History Graph

Search for Another Location

Airport or City:

Trip Planner

Search our weather history database for the weather conditions in past years. The results will help you decide how hot, cold, wet, or windy it might be!

Date:

Astronomy

Nov. 29, 2012 Rise Set
Actual Time 7:24 AM CST 5:21 PM CST
Civil Twilight 6:56 AM CST 5:49 PM CST
Nautical Twilight 6:24 AM CST 6:21 PM CST
Astronomical Twilight 5:54 AM CST 6:51 PM CST
Moon 6:26 PM CST (11/29) 8:11 AM CST (11/29)
Length of Visible Light 10h 53m
Length of Day
9h 57m
Full, 99% of the Moon is Illuminated
Nov 29
Full
Dec 6
Last Quarter
Dec 13
New
Dec 19
First Quarter
Dec 28
Full

Hourly Weather History & Observations

Time (CST) Temp. Windchill Dew Point Humidity Pressure Visibility Wind Dir Wind Speed Gust Speed Precip Events Conditions
12:15 AM 50.0 °F - 37.4 °F 62% 30.13 in 10.0 mi South 11.5 mph - N/A   Clear
12:35 AM 50.0 °F - 37.4 °F 62% 30.13 in 10.0 mi South 10.4 mph - N/A   Clear
12:55 AM 48.2 °F - 37.4 °F 66% 30.12 in 10.0 mi South 9.2 mph - N/A   Clear
1:35 AM 48.2 °F - 37.4 °F 66% 30.12 in 10.0 mi South 8.1 mph - N/A   Clear
1:55 AM 46.4 °F 42.9 °F 37.4 °F 71% 30.12 in 10.0 mi SSE 6.9 mph - N/A   Clear
2:15 AM 46.4 °F 44.3 °F 37.4 °F 71% 30.12 in 10.0 mi SSE 4.6 mph - N/A   Clear
2:35 AM 46.4 °F 42.4 °F 37.4 °F 71% 30.12 in 10.0 mi South 8.1 mph - N/A   Clear
2:55 AM 46.4 °F 40.7 °F 37.4 °F 71% 30.12 in 10.0 mi SSW 12.7 mph - N/A   Clear
3:15 AM 46.4 °F 41.9 °F 37.4 °F 71% 30.12 in 10.0 mi SSW 9.2 mph 17.3 mph N/A   Clear
3:35 AM 46.4 °F 41.1 °F 37.4 °F 71% 30.12 in 10.0 mi SSW 11.5 mph - N/A   Clear
3:55 AM 48.2 °F - 37.4 °F 66% 30.11 in 10.0 mi SSW 13.8 mph - N/A   Clear
4:15 AM 46.4 °F 40.4 °F 37.4 °F 71% 30.10 in 10.0 mi South 13.8 mph 18.4 mph N/A   Clear
4:35 AM 46.4 °F 40.7 °F 39.2 °F 76% 30.09 in 10.0 mi South 12.7 mph - N/A   Clear
4:55 AM 46.4 °F 40.7 °F 39.2 °F 76% 30.09 in 10.0 mi South 12.7 mph 19.6 mph N/A   Clear
5:15 AM 46.4 °F 40.7 °F 39.2 °F 76% 30.08 in 10.0 mi South 12.7 mph 17.3 mph N/A   Clear
5:35 AM 46.4 °F 40.7 °F 39.2 °F 76% 30.08 in 10.0 mi SSW 12.7 mph 17.3 mph N/A   Clear
5:55 AM 46.4 °F 42.4 °F 39.2 °F 76% 30.08 in 10.0 mi SSW 8.1 mph - N/A   Clear
6:15 AM 46.4 °F 40.7 °F 39.2 °F 76% 30.08 in 10.0 mi SSW 12.7 mph - N/A   Clear
6:35 AM 46.4 °F 41.5 °F 39.2 °F 76% 30.08 in 10.0 mi South 10.4 mph - N/A   Clear
6:55 AM 46.4 °F 41.9 °F 39.2 °F 76% 30.08 in 10.0 mi South 9.2 mph - N/A   Clear
7:15 AM 44.6 °F 39.7 °F 39.2 °F 81% 30.07 in 10.0 mi South 9.2 mph - N/A   Clear
7:35 AM 46.4 °F 41.9 °F 41.0 °F 81% 30.07 in 10.0 mi South 9.2 mph - N/A   Clear
7:55 AM 46.4 °F 41.5 °F 41.0 °F 81% 30.07 in 10.0 mi South 10.4 mph - N/A   Clear
8:15 AM 44.6 °F 41.4 °F 39.2 °F 81% 30.07 in 10.0 mi SSE 5.8 mph - N/A   Clear
8:35 AM 44.6 °F 40.7 °F 39.2 °F 81% 30.08 in 10.0 mi SSE 6.9 mph - N/A   Clear
8:55 AM 46.4 °F 41.9 °F 41.0 °F 81% 30.07 in 10.0 mi South 9.2 mph - N/A   Clear
9:15 AM 50.0 °F - 41.0 °F 71% 30.07 in 10.0 mi South 11.5 mph - N/A   Clear
9:35 AM 50.0 °F - 42.8 °F 76% 30.07 in 10.0 mi South 12.7 mph 18.4 mph N/A   Clear
9:55 AM 51.8 °F - 42.8 °F 71% 30.08 in 10.0 mi South 13.8 mph - N/A   Clear
10:15 AM 53.6 °F - 42.8 °F 67% 30.07 in 10.0 mi SSW 13.8 mph 19.6 mph N/A   Clear
10:35 AM 57.2 °F - 44.6 °F 63% 30.07 in 10.0 mi South 18.4 mph 27.6 mph N/A   Clear
10:55 AM 59.0 °F - 44.6 °F 59% 30.07 in 10.0 mi SSW 16.1 mph 28.8 mph N/A   Clear
11:15 AM 59.0 °F - 44.6 °F 59% 30.06 in 10.0 mi South 23.0 mph 28.8 mph N/A   Clear
11:35 AM 59.0 °F - 42.8 °F 55% 30.06 in 10.0 mi SSW 18.4 mph 27.6 mph N/A   Clear
11:55 AM 60.8 °F - 44.6 °F 55% 30.06 in 10.0 mi South 18.4 mph 24.2 mph N/A   Clear
12:15 PM 60.8 °F - 44.6 °F 55% 30.04 in 10.0 mi SSW 17.3 mph 23.0 mph N/A   Clear
12:35 PM 62.6 °F - 44.6 °F 52% 30.04 in 10.0 mi SSW 17.3 mph 25.3 mph N/A   Clear
12:55 PM 62.6 °F - 44.6 °F 52% 30.02 in 10.0 mi South 19.6 mph 25.3 mph N/A   Clear
1:15 PM 64.4 °F - 44.6 °F 49% 30.02 in 10.0 mi SSW 16.1 mph 23.0 mph N/A   Clear
1:35 PM 64.4 °F - 44.6 °F 49% 30.01 in 10.0 mi South 18.4 mph 25.3 mph N/A   Clear
1:55 PM 64.4 °F - 44.6 °F 49% 30.00 in 10.0 mi SSW 17.3 mph 24.2 mph N/A   Clear
2:15 PM 66.2 °F - 44.6 °F 46% 29.99 in 10.0 mi South 18.4 mph 26.5 mph N/A   Clear
2:35 PM 68.0 °F - 44.6 °F 43% 29.98 in 10.0 mi South 17.3 mph 23.0 mph N/A   Clear
3:15 PM 68.0 °F - 44.6 °F 43% 29.97 in 10.0 mi SSW 19.6 mph 25.3 mph N/A   Clear
3:35 PM 68.0 °F - 44.6 °F 43% 29.97 in 10.0 mi SSW 16.1 mph 24.2 mph N/A   Clear
3:55 PM 68.0 °F - 44.6 °F 43% 29.97 in 10.0 mi South 19.6 mph 25.3 mph N/A   Clear
4:15 PM 68.0 °F - 44.6 °F 43% 29.97 in 10.0 mi South 16.1 mph 19.6 mph N/A   Clear
4:35 PM 66.2 °F - 44.6 °F 46% 29.98 in 10.0 mi South 15.0 mph 21.9 mph N/A   Clear
4:55 PM 66.2 °F - 44.6 °F 46% 29.98 in 10.0 mi South 12.7 mph - N/A   Clear
5:15 PM 64.4 °F - 44.6 °F 49% 29.99 in 10.0 mi SSW 9.2 mph 12.7 mph N/A   Clear
5:35 PM 62.6 °F - 44.6 °F 52% 29.98 in 10.0 mi SSW 9.2 mph - N/A   Clear
5:55 PM 62.6 °F - 44.6 °F 52% 29.99 in 10.0 mi South 8.1 mph - N/A   Clear
6:15 PM 60.8 °F - 44.6 °F 55% 29.99 in 10.0 mi South 8.1 mph - N/A   Clear
6:35 PM 59.0 °F - 44.6 °F 59% 29.99 in 10.0 mi South 5.8 mph - N/A   Clear
6:55 PM 59.0 °F - 44.6 °F 59% 30.00 in 10.0 mi South 6.9 mph - N/A   Clear
7:15 PM 59.0 °F - 44.6 °F 59% 30.00 in 10.0 mi South 8.1 mph - N/A   Clear
7:35 PM 59.0 °F - 44.6 °F 59% 30.00 in 10.0 mi South 9.2 mph - N/A   Clear
7:55 PM 59.0 °F - 44.6 °F 59% 30.00 in 10.0 mi South 9.2 mph - N/A   Clear
8:15 PM 57.2 °F - 44.6 °F 63% 30.00 in 10.0 mi South 9.2 mph - N/A   Clear
8:35 PM 59.0 °F - 44.6 °F 59% 30.01 in 10.0 mi South 9.2 mph - N/A   Clear
8:55 PM 57.2 °F - 44.6 °F 63% 30.01 in 10.0 mi South 9.2 mph - N/A   Clear
9:15 PM 55.4 °F - 44.6 °F 67% 30.02 in 10.0 mi South 9.2 mph - N/A   Clear
9:35 PM 53.6 °F - 44.6 °F 72% 30.02 in 10.0 mi South 9.2 mph - N/A   Clear
9:55 PM 53.6 °F - 44.6 °F 72% 30.02 in 10.0 mi South 11.5 mph - N/A   Clear
10:15 PM 53.6 °F - 44.6 °F 72% 30.02 in 10.0 mi South 12.7 mph 17.3 mph N/A   Clear
10:35 PM 53.6 °F - 44.6 °F 72% 30.02 in 10.0 mi South 10.4 mph - N/A   Clear
10:55 PM 53.6 °F - 42.8 °F 67% 30.02 in 10.0 mi South 10.4 mph - N/A   Clear
11:15 PM 51.8 °F - 42.8 °F 71% 30.02 in 10.0 mi South 11.5 mph - N/A   Clear
11:35 PM 51.8 °F - 42.8 °F 71% 30.02 in 10.0 mi South 10.4 mph - N/A   Clear
11:55 PM 51.8 °F - 42.8 °F 71% 30.02 in 10.0 mi South 10.4 mph - N/A   Clear